Location: Dzierzno
(50.6159°N, 19.2852°E)
Time: 02:07:09
(UTC+00:00)

CORIOLIS - Pass Details

Date: 18 November 2025
Orbit: 815 x 836 km, 98.7° (Epoch: 04 December)

Event Time Altitude Azimuth Distance (km) Brightness Sun altitude
Rises 15:32:02 0° 153° (SSE) 3,348 7.3 -6.4°
Reaches altitude 10° 15:34:23 10° 150° (SSE) 2,416 6.5 -6.7°
Maximum altitude 15:39:40 65° 70° (ENE) 901 4.1 -7.5°
Drops below altitude 10° 15:44:58 10° 350° (N) 2,422 6.5 -8.3°
Sets 15:47:20 0° 347° (NNW) 3,357 7.2 -8.7°
